Volver al catálogo

FENGYUN 1C DEB

ActivoSSO
NORAD 36152·DEBRIS·🇨🇳 China

Lanzado May 10, 1999 desde Taiyuan Satellite Launch Center

Loading…

Próximos Pases (próximas 24 horas)

TLE

ActualizadoSource: Space-Track

Época: Sep 14, 2026, 21:54 UTC

1 36152U 99025DRZ 26257.91298116  .00001180  00000-0  58505-3 0  9997
2 36152  98.7366 298.4968 0055928 140.2623 220.2670 14.18259010680702

Sigue FENGYUN 1C DEB en tiempo real con AllMySat

Download on the App Store